Flag for Russia Weather past 2 weeks in Syktyvkar, Russia

Now
19 °F

Light snow. Cloudy.


Feels Like: 19 °F
Forecast: 18 / 29 °F
Wind: No wind

Location: Syktyvkar Airport

Current Time: Oct 26, 2014 at 9:20:55 AM

Latest Report: Oct 26, 2014 at 8:30 AM


Visibility: 3 mi

Pressure: 30.39 "Hg

Humidity: 79%

Dew point: 14 °F

Location of SyktyvkarLocation

Historic Weather in Syktyvkar — Graph

°F

Syktyvkar temperature yesterday

Maximum temperature yesterday: 23 °F (at 12:00 AM)
Minimum temperature yesterday: 19 °F (at 9:00 AM)
Average temperature yesterday: 21 °F

Past Weeks' High & Low Weather Summary

 TemperatureHumidityPressure
High34 °F (Oct 14, 12:30 PM)93% (Oct 14, 5:00 AM)30.42 "Hg (Oct 14, 5:00 AM)
Low1 °F (Oct 22, 6:00 AM)50% (Oct 20, 2:30 PM)29.80 "Hg (Oct 20, 3:00 PM)
Average21 °F77%30.03 "Hg
* Reported Oct 11 9:00 AM — Oct 26 8:00 AM, Syktyvkar, Weather by CustomWeather, © 2014

Note: Actual official high and low records may vary slightly from our data, if they occured in-between our weather recording intervals... More about our weather records

Advertising

Syktyvkar weather history for previous 24 hours

 ConditionsComfort  
Time TempWeatherWind HumidityBarometerVisibility
8:00 AM
Oct 26
18 °FLight snow. Cloudy.1 mph86%30.39 "Hg4 mi
7:30 AM16 °FOvercast.No wind86%30.39 "Hg6 mi
7:00 AM16 °FLight snow. Overcast.No wind86%30.39 "Hg6 mi
6:30 AM16 °FClear.No wind86%30.39 "Hg10 mi
6:00 AM18 °FClear.1 mph86%30.39 "Hg10 mi
5:30 AM18 °FMostly cloudy.No wind86%30.39 "Hg6 mi
5:00 AM19 °FSnow flurries. Mostly cloudy.1 mph86%30.39 "Hg5 mi
4:30 AM19 °FSnow flurries. Mostly cloudy.3 mph79%30.39 "Hg5 mi
4:00 AM19 °FSnow flurries. Mostly cloudy.3 mph79%30.39 "Hg6 mi
3:30 AM19 °FSnow flurries. Mostly cloudy.3 mph79%30.39 "Hg6 mi
3:00 AM19 °FMostly cloudy.3 mph79%30.39 "HgN/A
2:30 AM21 °FSnow flurries. Mostly cloudy.3 mph74%30.39 "Hg6 mi
2:00 AM21 °FMostly cloudy.3 mph74%30.39 "Hg6 mi
1:30 AM21 °FSnow flurries. Mostly cloudy.3 mph74%30.39 "HgN/A
1:00 AM21 °FMostly cloudy.6 mph74%30.39 "HgN/A
1:00 AM21 °FMostly cloudy.3 mph74%30.39 "HgN/A
12:30 AM21 °FMostly cloudy.3 mph74%30.39 "HgN/A
12:00 AM21 °FMostly cloudy.3 mph74%30.39 "HgN/A
11:30 PM
Oct 25
21 °FMostly cloudy.1 mph80%30.39 "HgN/A
11:00 PM21 °FSnow flurries. Mostly cloudy.3 mph80%30.39 "HgN/A
10:30 PM23 °FSnow flurries. Mostly cloudy.1 mph68%30.39 "HgN/A
10:00 PM23 °FMostly cloudy.3 mph68%30.39 "HgN/A
9:30 PM21 °FMostly cloudy.3 mph74%30.42 "HgN/A
9:00 PM21 °FMostly cloudy.6 mph74%30.42 "HgN/A
8:30 PM21 °FMostly cloudy.6 mph74%30.42 "HgN/A
8:00 PM23 °FMostly cloudy.3 mph68%30.42 "HgN/A
7:30 PM21 °FMostly cloudy.3 mph74%30.42 "HgN/A
7:00 PM21 °FMostly cloudy.3 mph74%30.42 "HgN/A
6:30 PM21 °FSnow flurries. Mostly cloudy.3 mph74%30.42 "HgN/A
6:00 PM21 °FMostly cloudy.1 mph74%30.42 "HgN/A
5:30 PM21 °FMostly cloudy.3 mph74%30.42 "Hg6 mi
5:00 PM21 °FSnow flurries. Mostly cloudy.3 mph74%30.42 "Hg6 mi
4:30 PM21 °FSnow flurries. Mostly cloudy.3 mph74%30.42 "Hg4 mi
4:00 PM21 °FSnow flurries. Mostly cloudy.3 mph74%30.42 "Hg5 mi
3:30 PM21 °FSnow flurries. Mostly cloudy.3 mph74%30.42 "Hg3 mi
3:00 PM21 °FSnow flurries. Mostly cloudy.3 mph74%30.42 "Hg4 mi
2:30 PM21 °FSnow flurries. Mostly cloudy.3 mph68%30.42 "Hg6 mi
2:00 PM23 °FSnow flurries. Mostly cloudy.8 mph68%30.42 "Hg4 mi
1:30 PM21 °FSnow flurries. Mostly cloudy.8 mph74%30.42 "Hg3 mi
1:00 PM21 °FSnow flurries. Mostly cloudy.8 mph80%30.42 "Hg2 mi
12:30 PM21 °FSnow showers. Mostly cloudy.6 mph80%30.42 "Hg1 mi
12:00 PM21 °FSnow flurries. Mostly cloudy.6 mph80%30.39 "Hg2 mi
11:30 AM21 °FSnow flurries. Mostly cloudy.8 mph74%30.39 "Hg3 mi
11:00 AM21 °FSnow flurries. Mostly cloudy.8 mph80%30.39 "Hg2 mi
10:30 AM19 °FSnow flurries. Mostly cloudy.8 mph79%30.39 "Hg2 mi
10:00 AM19 °FSnow flurries. Mostly cloudy.8 mph86%30.39 "Hg2 mi
9:30 AM19 °FSnow flurries. Mostly cloudy.8 mph86%30.39 "Hg2 mi
9:00 AM19 °FSnow showers. Mostly cloudy.6 mph86%30.39 "Hg1 mi
Weather by CustomWeather, © 2014

See weather overviewHow to use our weather pages